Year,Month,Day,Hour,Minute,Value (Times are PST for temperature in C)
2017,09,25,00,31,12.30
2017,09,25,00,32,12.30
2017,09,25,00,33,12.30
2017,09,25,00,34,12.30
2017,09,25,01,31,12.20
2017,09,25,01,32,12.20
2017,09,25,01,33,12.20
2017,09,25,01,34,12.20
2017,09,25,02,31,11.90
2017,09,25,02,32,11.90
2017,09,25,02,33,11.90
2017,09,25,02,34,11.90
2017,09,25,03,31,12.00
2017,09,25,03,32,12.00
2017,09,25,03,33,12.00
2017,09,25,03,34,12.00
2017,09,25,04,31,12.10
2017,09,25,04,32,12.10
2017,09,25,04,33,12.10
2017,09,25,04,34,12.20
2017,09,25,05,31,12.20
2017,09,25,05,32,12.20
2017,09,25,05,33,12.20
2017,09,25,05,34,12.20
2017,09,25,06,31,12.30
2017,09,25,06,32,12.30
2017,09,25,06,33,12.20
2017,09,25,06,34,12.20
2017,09,25,07,31,12.30
2017,09,25,07,32,12.30
2017,09,25,07,33,12.30
2017,09,25,07,34,12.30
2017,09,25,08,31,12.40
2017,09,25,08,32,12.30
2017,09,25,08,33,12.30
2017,09,25,08,34,12.30
2017,09,25,09,31,12.40
2017,09,25,09,32,12.40
2017,09,25,09,33,12.40
2017,09,25,09,34,12.30
2017,09,25,10,31,12.70
2017,09,25,10,32,12.80
2017,09,25,10,33,12.80
2017,09,25,10,34,12.80
2017,09,25,11,31,13.30
2017,09,25,11,32,13.20
2017,09,25,11,33,13.20
2017,09,25,11,34,13.20
2017,09,25,12,31,13.30
2017,09,25,12,32,13.30
2017,09,25,12,33,13.30
2017,09,25,12,34,13.30
2017,09,25,13,31,13.90
2017,09,25,13,32,13.90
2017,09,25,13,33,13.90
2017,09,25,13,34,14.00
2017,09,25,14,31,14.90
2017,09,25,14,32,14.90
2017,09,25,14,33,14.90
2017,09,25,14,34,14.90
2017,09,25,15,31,15.40
2017,09,25,15,32,15.40
2017,09,25,15,33,15.40
2017,09,25,15,34,15.40
2017,09,25,16,31,16.60
2017,09,25,16,32,16.60
2017,09,25,16,33,16.60
2017,09,25,16,34,16.60
2017,09,25,17,31,15.70
2017,09,25,17,32,15.70
2017,09,25,17,33,15.70
2017,09,25,17,34,15.70
2017,09,25,18,31,15.30
2017,09,25,18,32,15.20
2017,09,25,18,33,15.20
2017,09,25,18,34,15.10
2017,09,25,19,31,14.20
2017,09,25,19,32,14.20
2017,09,25,19,33,14.20
2017,09,25,19,34,14.20
2017,09,25,20,31,13.60
2017,09,25,20,32,13.60
2017,09,25,20,33,13.60
2017,09,25,20,34,13.60
2017,09,25,21,31,13.50
2017,09,25,21,32,13.40
2017,09,25,21,33,13.40
2017,09,25,21,34,13.40
2017,09,25,22,31,13.60
2017,09,25,22,32,13.60
2017,09,25,22,33,13.60
2017,09,25,22,34,13.60
2017,09,25,23,31,13.60
2017,09,25,23,32,13.60
2017,09,25,23,33,13.60
2017,09,25,23,34,13.60
